This is the latest recevied weather packets stored in our database for station/object KO4FR. If no packets are shown the sender has not sent any weather packets the latest 10 day(s).
| Time | Temp. | Humidity | Pressure | Rain* | Wind** | Luminosity | Snow |
|---|---|---|---|---|---|---|---|
| 1778134511 | 18.89° C | 100% | 1010.6 hPa | 0 mm | - | - | - |
| 1778134211 | 18.89° C | 100% | 1010.4 hPa | 0 mm | - | - | - |
| 1778133911 | 18.89° C | 100% | 1010.7 hPa | 0.25 mm | - | - | - |
| 1778133610 | 18.89° C | 100% | 1010.9 hPa | 0.25 mm | - | - | - |
| 1778133310 | 18.89° C | 100% | 1011.1 hPa | 0.51 mm | - | - | - |
| 1778133011 | 18.89° C | 100% | 1011.1 hPa | 0.76 mm | - | - | - |
| 1778132710 | 18.89° C | 100% | 1011.2 hPa | 1.27 mm | - | - | - |
| 1778132411 | 18.89° C | 100% | 1011 hPa | 1.27 mm | - | - | - |
| 1778132111 | 18.89° C | 100% | 1011 hPa | 1.27 mm | - | - | - |
| 1778131810 | 18.89° C | 100% | 1011 hPa | 1.52 mm | - | - | - |
| 1778131510 | 18.89° C | 100% | 1011.1 hPa | 1.52 mm | - | - | - |
| 1778131210 | 18.89° C | 2% | 1011.1 hPa | 1.52 mm | - | - | - |
| 1778130911 | 18.89° C | 3% | 1011.2 hPa | 1.52 mm | - | - | - |
| 1778130611 | 18.89° C | 4% | 1011 hPa | 1.52 mm | - | - | - |
| 1778130310 | 18.89° C | 6% | 1011.3 hPa | 1.27 mm | - | - | - |
| 1778130010 | 18.89° C | 8% | 1010.8 hPa | 1.27 mm | - | - | - |
| 1778129710 | 18.89° C | 10% | 1010.7 hPa | 1.02 mm | - | - | - |
| 1778129410 | 18.89° C | 11% | 1011.4 hPa | 0.76 mm | - | - | - |
| 1778129110 | 18.89° C | 15% | 1011.9 hPa | 0.25 mm | - | - | - |
| 1778128810 | 18.89° C | 19% | 1012.1 hPa | 0.25 mm | - | - | - |
| 1778128510 | 19.44° C | 23% | 1012.2 hPa | 0.25 mm | - | - | - |
| 1778128210 | 19.44° C | 28% | 1012.2 hPa | 0 mm | - | - | - |
| 1778127910 | 19.44° C | 32% | 1012.3 hPa | 0 mm | - | - | - |
| 1778127610 | 19.44° C | 36% | 1012.2 hPa | 0 mm | - | - | - |
| 1778127311 | 20° C | 40% | 1012.3 hPa | 0 mm | - | - | - |
* Rain latest hour (hover to see other rain measurements)
** Current wind speed in m/s (hover to see current wind gust speed)